Weather in Chambarak

Armenia     40°35′44″N   45°21′23″E
temp.,
°C
wind,
m/s
gust,
m/s
humid.,
%
clouds,
%
prec.,
mm/h
press.,
hPa
HPBL,
m
16 may, mon
mon1601:00+10ese3370100 0.0 1014366
04:00+10e227287 0.0 1012166
07:00+9ne2375100 0.1 1011304
10:00+8e1389100 5.9 1011417
13:00+10n548297 1.8 1010348
16:00+7n448994 2.3 1013475
19:00+7n3388100 0.2 1015379
22:00+6n228684 0.4 1017301
17 may, tue
tue1701:00+6nnw11845 0.0 1017250
04:00+6nnw21798 0.0 1016240
07:00+7nne117883 0.0 1016246
10:00+9nne216822 0.1 1015734
13:00+10nne225978 0.1 1014969
16:00+9nne548233 0.8 1014444
19:00+8nne348124 0.1 1015445
22:00+6ne228317 0.1 1017305
18 may, wed
wed1801:00+6nne228232 0.0 1017223
04:00+6ne227837 0.0 1016204
07:00+7ese11774 0.0 1016216
10:00+10sse116717 0.0 1015576
13:00+13wsw345212 0.1 10131076
16:00+15wsw78482 0.1 10111851
19:00+14w46601 0.1 1011751
22:00+11w12685 0.1 1013132
19 may, thu
thu1901:00+10nnw22716 0.1 1013132
04:00+9sw11715 0.1 101388
07:00+10sw12695 0.0 1013220
10:00+14wsw56512 0.0 10121252
13:00+15wsw674947 0.2 10121992
16:00+16wsw464978 0.4 1009830
19:00+9n5586100 3.5 1013252
22:00+7n4596100 4.8 1016403
20 may, fri
fri2001:00+5ne449684 0.3 1016269
04:00+3n5594100 0.9 1017293
07:00+1n4497100 6.4 1021318
10:00+1n449198 7.9 1020433
13:00+2n3491100 1.0 1021479
16:00+3nnw458137 1.3 1019729
19:00+3n3381100 0.3 1020554
22:00+2nne338860 0.6 1022460